Theta_e
316 319 321 322 324 324 323 325 321 322 323 313 314 315 316 319 318 318 320 322 321 320 319 319 318 318 318 320 321 320 320 319 319 315 319 331 326 318 326 328 326 334 334 340 343 336 336 338 340 341 341 341 341 342 341 341 340 339 338 338 339 339 339 339 339 339 340 341 341 340 340 341 340 340 339 340 339 338 339 339 339 340 340 340 341 341 340 340 339 339 338 337 333 332 330 328 325
320 323 324 324 325 324 323 324 318 317 317 311 314 315 315 319 318 319 320 320 320 319 318 319 319 318 318 319 319 319 320 319 320 318 325 328 323 321 321 321 324 333 336 339 343 338 337 338 339 341 342 341 341 341 341 341 340 338 338 338 338 338 338 339 340 339 340 340 341 341 340 341 340 340 339 339 339 338 338 338 339 339 339 340 340 340 339 338 338 337 337 336 334 332 328 325 322
321 324 325 325 324 323 322 323 317 312 312 310 312 316 317 317 318 320 320 319 319 319 318 319 319 319 318 319 319 320 320 320 321 318 325 326 327 329 321 319 322 332 337 338 343 339 338 340 338 340 341 341 341 342 341 341 340 339 338 338 338 338 339 340 340 339 340 340 341 341 341 341 340 339 338 338 337 336 337 337 338 338 338 339 339 338 337 337 336 335 336 335 333 330 325 320 317
321 324 324 325 323 323 322 322 321 313 311 310 310 316 319 317 318 318 319 320 318 319 318 319 319 319 318 320 320 320 321 319 322 319 324 329 329 331 325 319 320 330 337 338 343 341 341 341 338 340 341 341 341 341 341 340 339 339 338 338 338 339 340 341 340 340 340 341 341 341 341 340 339 338 337 336 335 334 335 335 336 337 337 337 337 335 336 335 334 333 334 333 331 328 323 317 313
324 325 323 324 323 324 323 321 320 315 312 312 312 316 319 317 319 318 318 319 319 319 318 319 320 320 319 319 320 319 321 320 323 320 324 329 324 327 326 320 320 329 337 338 341 342 341 341 338 339 341 341 341 341 341 340 339 339 339 339 339 339 340 340 340 341 340 341 341 341 340 339 338 337 336 335 334 333 333 333 333 334 334 335 335 333 333 333 332 332 332 332 330 325 318 313 310
326 324 321 323 323 323 321 317 316 314 317 318 315 316 318 317 320 319 319 319 319 319 317 319 319 320 319 319 320 319 323 321 322 322 325 329 322 322 325 321 321 328 336 337 340 342 342 341 340 338 340 341 340 340 341 340 339 339 339 339 339 338 339 339 340 341 341 341 340 340 339 338 337 336 335 333 333 332 332 332 332 332 332 333 333 332 331 331 330 328 329 327 325 320 313 309 307
326 325 322 321 322 321 318 316 314 315 319 320 316 317 318 317 319 319 320 320 319 319 317 319 318 319 320 320 320 320 323 322 324 326 323 324 321 321 324 323 324 328 334 337 339 342 341 341 340 339 340 341 340 340 341 340 340 340 339 339 338 339 339 339 340 340 340 340 340 339 338 337 336 335 334 332 332 331 330 331 331 331 331 331 331 331 329 329 327 324 322 320 317 313 309 307 305
324 325 323 321 323 322 318 316 316 317 319 319 318 317 318 318 319 319 320 320 320 320 318 318 318 318 319 319 320 321 322 319 322 324 320 319 319 320 323 326 327 328 332 336 339 341 341 340 339 339 339 340 341 340 341 341 340 340 340 339 338 339 339 340 340 340 339 339 339 338 337 336 335 334 333 332 331 330 329 329 330 329 329 329 328 328 328 328 324 320 318 314 311 307 305 303 302
321 322 322 321 322 321 318 317 317 319 319 318 318 317 318 318 319 319 319 320 320 320 319 319 318 319 320 319 319 322 322 319 317 318 317 317 318 318 322 328 329 329 332 335 338 341 340 339 338 338 339 340 340 340 340 340 340 340 340 339 338 339 339 339 339 339 338 338 338 337 336 335 334 333 332 331 330 329 327 328 328 328 327 327 327 326 327 326 321 316 313 309 306 304 302 300 299
320 320 322 322 319 316 314 315 317 319 319 318 317 317 317 318 319 319 319 320 320 320 319 318 318 318 319 319 319 324 323 318 315 316 316 315 317 318 322 327 330 330 333 336 338 340 339 337 337 338 339 339 339 340 340 340 340 339 339 339 338 339 338 339 338 337 338 337 336 336 335 334 333 333 331 329 328 327 327 327 327 326 326 326 326 325 326 324 319 314 310 305 303 300 299 299 298
322 320 320 320 316 312 311 313 316 318 319 318 318 318 318 318 318 319 319 320 319 319 319 317 318 318 319 319 321 325 321 316 317 320 319 315 316 318 325 329 331 332 333 336 338 339 338 336 336 338 339 339 339 339 340 340 340 339 339 339 339 339 338 338 337 336 336 336 335 334 333 332 331 331 329 328 327 326 326 326 326 326 326 326 325 325 325 322 317 314 309 303 300 298 298 298 298
324 322 321 318 315 314 313 314 316 318 319 318 320 319 318 318 318 319 319 319 319 319 319 318 318 318 319 319 321 324 320 318 320 322 319 316 317 319 326 331 331 333 334 335 337 337 337 335 335 339 339 339 340 339 340 339 340 339 339 339 338 338 337 337 336 335 335 334 334 332 331 330 329 329 328 327 326 325 325 326 326 326 325 325 324 325 323 319 316 314 307 301 298 298 298 298 298
322 322 321 317 318 318 315 316 317 319 320 319 319 318 318 317 318 319 318 318 318 318 319 319 318 318 318 318 320 321 320 320 320 319 316 316 321 322 326 331 332 333 334 334 336 336 335 336 337 339 339 339 339 339 339 339 339 339 338 338 338 337 337 336 335 335 334 333 332 331 329 328 329 328 327 327 325 324 324 325 325 325 325 324 324 323 320 316 315 311 304 300 298 298 298 298 298
321 321 321 318 320 320 317 316 317 317 317 318 318 317 317 317 319 318 317 317 317 318 318 318 318 317 317 318 319 320 322 320 317 315 314 316 321 325 326 331 332 332 334 333 333 334 334 336 337 338 339 339 339 339 339 339 339 338 338 337 336 336 336 335 334 333 332 331 330 330 329 328 328 327 327 326 324 324 322 322 324 324 324 323 323 320 317 314 311 306 301 299 298 298 298 298 298
321 321 321 319 319 319 319 318 317 316 315 318 318 316 317 316 318 317 317 317 317 318 317 317 317 317 317 318 319 322 322 317 315 314 314 315 318 324 326 329 331 331 333 333 332 333 334 335 336 337 338 339 339 339 339 338 338 338 337 336 336 335 335 334 333 332 331 330 329 329 328 327 327 326 326 325 323 323 321 318 320 322 323 322 320 318 315 311 307 302 299 298 298 298 297 297 297
321 321 321 320 317 316 320 321 319 316 316 318 317 316 317 316 317 317 317 316 316 318 318 317 317 317 317 317 320 321 318 315 315 314 316 317 318 323 325 327 329 330 331 332 331 332 334 335 335 336 337 337 338 338 338 337 337 337 336 336 335 334 334 333 331 331 330 329 328 328 327 327 326 326 326 324 323 322 318 316 317 320 323 321 318 315 311 308 303 299 298 297 298 297 297 297 297
320 321 321 319 317 316 319 321 318 316 316 317 316 317 316 316 317 316 316 315 316 317 317 317 317 317 316 318 320 319 316 314 314 316 320 322 322 324 325 326 328 330 330 330 331 331 332 335 335 335 335 336 337 337 336 336 336 336 335 335 334 333 332 331 330 329 329 328 328 327 326 326 326 325 325 323 322 322 317 315 316 318 321 320 315 312 308 304 300 298 297 297 297 297 297 297 296
320 321 320 318 318 318 319 320 317 316 316 316 316 317 317 316 316 316 315 315 316 316 316 317 317 318 317 318 320 318 316 316 317 319 323 325 324 325 326 327 327 329 330 330 330 330 332 334 334 334 334 334 335 336 335 335 335 335 334 334 333 332 331 329 329 328 328 327 327 326 326 325 325 324 323 322 322 321 317 314 315 316 319 319 314 310 306 302 299 297 297 297 297 296 296 296 296
320 321 320 319 320 318 319 319 316 316 316 316 316 316 316 316 316 316 316 316 316 316 317 317 317 317 318 319 319 318 317 318 319 320 322 324 324 324 325 327 327 328 330 330 330 330 331 333 333 333 333 333 333 335 334 333 334 333 332 332 332 331 329 328 328 327 327 327 326 326 325 324 324 323 323 322 321 321 318 314 314 315 318 318 313 309 306 301 298 297 297 296 296 296 296 296 296
319 320 319 319 320 318 319 318 317 316 315 316 316 315 316 316 316 316 316 315 316 316 316 316 317 317 317 318 319 319 318 318 320 319 320 322 323 323 323 325 328 328 328 330 330 330 331 332 332 332 333 333 333 333 333 333 333 332 331 330 330 329 328 328 327 327 326 326 326 325 324 324 323 323 323 321 320 320 319 315 314 315 317 316 312 309 306 301 297 296 296 296 296 295 295 296 296
319 321 319 318 318 317 318 318 317 317 316 316 316 316 316 316 316 316 316 316 316 316 316 316 316 317 317 317 317 318 319 318 319 320 320 320 321 322 322 322 325 327 327 329 330 330 330 331 332 332 333 333 332 332 332 333 332 331 330 329 329 328 328 328 327 326 326 325 325 324 324 324 322 323 322 320 319 319 319 316 315 316 316 315 312 309 305 300 297 296 296 295 295 295 295 296 296
320 320 319 317 316 316 317 317 317 317 317 316 316 316 316 316 317 316 316 316 316 316 316 316 316 316 316 316 317 318 319 318 318 319 320 320 320 320 321 321 322 325 327 328 329 329 329 329 331 332 332 333 332 332 331 332 331 330 329 329 328 328 327 327 326 326 326 325 325 324 323 323 322 322 321 320 319 318 318 317 316 317 316 315 311 310 307 301 296 296 296 295 295 295 295 296 296
318 317 317 317 317 317 317 317 317 317 316 316 316 316 316 316 316 316 316 316 317 317 316 316 316 317 317 316 316 317 318 317 317 318 319 319 319 319 320 320 320 322 326 328 327 328 328 328 330 330 331 332 332 331 331 330 329 329 329 329 328 328 327 327 326 325 325 325 324 323 323 323 322 320 319 319 317 316 318 317 317 316 316 314 310 311 311 303 297 296 295 295 295 296 296 296 296
317 316 315 316 316 317 317 316 316 316 317 316 316 316 316 316 316 316 316 316 317 317 317 317 317 317 317 316 316 316 317 317 317 318 318 318 319 320 320 320 320 320 323 326 326 327 328 327 328 329 330 330 331 330 330 330 329 329 329 329 328 327 327 326 326 326 325 324 324 322 322 322 320 319 318 318 316 315 317 317 317 316 316 315 310 312 311 303 297 296 295 295 295 296 296 296 296
317 316 316 316 316 317 317 316 316 317 317 316 316 316 315 316 315 315 315 316 316 317 317 316 317 317 316 316 316 316 317 316 317 317 317 318 318 319 319 320 320 319 321 323 325 325 326 326 326 327 328 329 330 329 329 329 329 328 328 328 328 327 327 327 326 325 325 324 323 322 322 321 319 317 316 317 315 315 317 317 317 316 315 314 310 309 306 300 296 295 295 296 295 296 295 296 296
316 317 316 316 316 316 316 315 315 316 316 315 315 315 315 315 315 315 315 315 316 316 316 316 316 316 315 316 315 316 315 316 317 317 317 318 319 319 319 320 320 320 319 320 322 324 324 325 325 325 326 327 328 328 328 328 328 328 328 328 327 326 325 326 325 324 324 323 323 322 321 319 317 316 316 316 315 315 317 317 316 314 313 311 307 304 301 297 296 296 296 295 295 295 295 296 295
315 315 315 315 314 314 314 314 314 315 315 315 315 315 315 315 315 314 315 316 316 315 315 316 315 315 315 315 315 316 316 316 316 317 317 317 319 320 320 319 319 320 319 319 320 322 323 323 324 324 324 325 326 327 327 327 328 327 327 327 327 326 325 325 324 324 324 322 322 321 320 318 315 315 315 314 314 314 314 314 313 312 310 308 304 301 298 296 296 295 296 295 295 295 295 295 295
314 314 313 313 313 313 314 314 314 315 315 314 314 314 314 313 314 314 315 315 315 315 315 315 314 315 315 315 315 315 316 316 317 316 317 317 318 319 320 319 319 318 318 318 318 320 322 322 322 322 323 323 323 325 325 325 326 326 326 326 325 325 324 324 324 324 323 322 320 320 320 317 313 313 313 312 312 312 312 311 310 308 307 305 302 299 297 296 296 295 295 295 295 295 295 295 295
313 313 313 313 314 314 315 315 315 315 315 313 313 313 313 314 314 315 315 315 315 315 315 314 314 314 314 315 315 315 316 316 317 317 317 317 317 317 318 318 318 318 317 317 316 317 320 321 321 322 323 323 322 323 324 323 324 325 325 325 324 324 323 323 323 323 322 321 319 318 318 316 312 311 311 310 310 310 309 308 307 306 305 303 300 298 296 296 296 295 295 295 295 295 295 295 294
312 313 313 313 314 314 315 315 314 315 314 312 312 311 313 315 315 316 316 316 315 315 314 314 314 314 315 315 314 315 315 316 315 316 317 316 317 316 316 316 316 318 318 317 317 317 318 318 319 321 322 323 322 322 323 323 324 324 324 324 324 323 323 323 322 322 321 320 319 317 316 314 311 309 309 309 308 307 307 306 305 304 303 301 299 298 296 295 295 296 296 295 295 295 295 295 294
313 314 314 314 314 314 317 316 313 313 313 311 312 311 312 315 315 316 316 314 314 314 314 314 314 315 314 315 315 315 314 316 315 315 316 315 316 316 316 316 315 316 317 317 317 316 316 316 317 318 319 321 322 322 323 323 323 323 323 323 323 322 322 322 322 321 321 320 318 316 315 313 311 309 308 308 306 306 305 304 303 302 301 300 299 297 296 295 295 295 295 295 295 294 295 294 294
314 314 313 314 314 314 317 316 314 314 312 311 312 312 314 316 316 316 316 315 314 313 314 314 314 315 315 315 314 315 315 315 316 315 315 315 315 315 315 315 314 314 314 315 317 316 316 316 316 316 317 319 321 322 322 323 323 323 323 322 322 321 321 321 321 321 320 319 317 316 315 313 311 309 308 307 305 305 304 303 302 301 300 299 298 297 296 295 294 295 295 295 294 294 295 294 294
315 315 313 315 314 315 317 317 316 316 313 312 312 313 314 316 315 315 315 315 315 314 315 314 315 315 315 315 315 315 315 315 316 316 315 315 315 314 314 314 313 313 313 313 314 315 316 316 315 315 315 317 320 322 322 322 323 322 322 322 321 321 320 320 320 320 319 318 317 316 314 313 311 309 308 306 305 304 303 301 301 301 300 298 298 296 296 295 294 295 294 294 294 295 296 295 296
315 316 315 316 316 315 315 316 317 315 313 313 313 312 313 314 314 314 314 314 314 314 315 314 315 315 315 315 315 315 315 315 316 315 315 315 314 314 314 314 313 313 313 312 313 314 315 315 315 315 314 316 319 321 322 322 322 322 322 321 320 320 320 319 319 319 318 317 316 315 314 313 312 310 308 306 304 303 302 301 300 300 299 298 298 296 295 295 295 295 294 294 295 295 296 296 296
315 316 315 315 317 316 315 317 318 316 315 315 315 314 314 315 315 314 315 315 315 314 315 315 314 315 315 315 315 315 316 316 315 315 315 315 314 314 313 313 313 313 312 312 312 313 313 314 314 314 314 315 317 319 320 321 321 321 321 321 320 319 319 319 319 318 317 316 315 314 313 312 312 310 308 306 304 303 302 301 300 299 298 298 297 296 295 295 295 295 295 294 295 296 297 296 296
316 316 315 315 315 316 317 317 318 317 317 316 316 315 315 316 315 315 315 315 315 315 315 315 315 315 315 315 316 317 316 315 315 316 316 315 314 313 313 313 312 312 311 311 311 311 312 312 313 313 313 314 315 317 319 320 320 320 320 320 319 318 318 318 318 317 316 316 315 314 313 312 311 310 309 307 305 303 302 300 300 299 298 298 297 296 295 295 295 295 295 295 295 296 296 296 296
317 317 316 316 315 316 317 317 317 317 316 315 315 315 315 315 315 314 315 315 315 315 315 315 316 316 316 317 317 316 315 315 316 316 314 313 313 312 312 312 312 311 311 310 310 310 311 312 312 312 312 312 313 315 317 318 318 319 319 319 318 318 317 317 316 316 315 315 314 314 312 311 311 310 308 307 305 303 302 300 299 299 298 297 297 296 295 295 295 295 295 295 295 295 296 297 296
316 316 316 316 316 316 317 318 317 316 315 315 315 315 314 314 314 315 315 315 315 315 316 316 316 317 317 317 316 315 315 316 315 313 312 313 312 312 311 311 311 311 310 310 310 310 310 310 311 311 311 311 312 313 314 316 317 317 317 317 317 317 316 316 315 315 315 314 313 313 312 311 310 309 308 307 305 304 302 300 299 298 298 297 297 296 296 295 295 295 295 295 294 294 295 296 296
315 316 316 316 317 317 318 318 316 314 313 314 315 314 314 314 314 315 315 315 316 316 316 316 317 318 318 316 315 315 315 314 313 312 312 312 311 310 310 310 309 309 309 309 309 309 309 310 310 310 310 310 310 311 312 314 315 315 316 316 316 316 316 315 314 314 313 313 312 312 311 310 309 308 307 306 305 304 302 300 299 298 297 297 296 296 295 295 295 295 295 295 294 294 295 296 295
315 316 316 316 317 318 318 317 316 314 313 315 315 314 315 316 316 316 316 316 316 316 317 318 319 318 317 315 314 314 313 313 312 311 311 311 310 310 309 309 308 308 308 308 308 308 308 308 309 309 310 310 309 309 310 311 312 313 314 314 313 313 313 312 312 312 312 311 311 310 310 309 309 308 307 305 304 303 302 300 299 298 297 297 296 296 296 295 295 295 295 295 295 294 295 295 294
317 317 317 317 318 318 317 317 316 315 315 315 314 315 316 317 319 318 316 316 316 317 318 318 318 316 316 315 314 313 312 311 311 310 309 309 309 308 308 307 307 307 307 307 307 307 307 307 308 308 308 309 308 308 308 308 309 311 312 311 310 310 310 309 309 310 310 309 309 309 308 308 308 308 307 305 304 303 302 300 299 298 297 297 296 295 296 295 295 295 295 295 295 295 296 295 294
318 318 318 318 318 317 317 317 316 316 316 315 314 317 318 317 318 318 318 317 317 318 319 318 316 315 314 313 312 312 311 310 309 308 308 308 308 307 306 306 306 306 306 306 306 306 306 306 306 307 307 308 308 307 307 307 308 309 309 310 309 309 309 309 308 308 308 308 308 308 307 307 307 307 307 306 305 303 302 300 299 298 297 297 296 296 296 296 295 295 295 295 295 295 296 296 294
318 319 318 318 317 317 317 317 317 316 316 315 314 317 319 318 318 320 319 319 318 319 318 316 314 313 313 311 311 310 310 309 308 307 307 306 306 305 305 304 304 304 304 304 305 305 305 305 305 306 306 306 307 306 306 306 306 307 307 308 308 308 309 309 309 308 308 308 307 307 306 306 306 306 306 305 305 304 303 301 299 298 297 296 296 296 296 296 296 295 295 295 295 295 296 296 295
319 317 316 317 316 316 317 317 316 315 316 316 316 316 319 319 318 320 319 318 319 318 315 313 312 311 311 310 310 309 309 308 307 307 306 305 305 304 304 303 303 303 303 303 303 303 304 304 304 304 304 305 305 305 305 305 305 306 306 307 307 307 307 308 308 307 307 306 306 306 305 305 304 304 304 304 304 304 303 302 300 298 297 297 296 296 296 296 296 295 295 295 295 295 296 296 296
319 315 314 315 314 314 315 315 315 315 316 318 318 317 319 320 318 319 318 318 318 316 314 313 312 311 310 310 309 308 307 306 306 305 304 304 304 303 303 302 302 302 302 302 302 302 302 303 303 303 303 303 303 303 304 304 305 304 305 305 306 306 306 306 306 306 305 304 304 304 304 303 302 302 302 303 303 303 303 302 300 299 298 297 296 296 296 296 296 296 295 295 295 295 295 296 297
316 314 313 314 314 315 315 315 314 315 317 319 319 318 320 320 317 317 318 317 317 315 314 313 311 310 310 309 308 307 306 305 304 304 303 303 303 302 302 301 301 301 301 301 301 301 301 301 301 301 301 302 302 302 303 303 304 304 304 304 305 305 305 305 305 305 305 304 303 303 303 302 302 301 301 301 301 302 302 301 300 299 298 297 297 296 295 296 296 296 295 295 295 295 295 295 296
314 314 314 315 316 315 315 314 314 316 319 320 319 318 320 320 318 317 317 317 316 316 314 312 310 310 309 307 306 305 304 304 303 302 302 302 302 301 301 300 300 300 299 300 300 301 301 300 301 300 300 300 300 301 301 302 302 303 303 303 304 304 304 305 305 305 305 304 304 303 302 302 301 301 300 300 300 300 300 300 300 299 298 298 297 296 296 296 296 296 295 295 294 295 295 295 296
313 314 314 315 318 316 316 315 315 319 323 320 318 318 319 321 318 316 317 316 315 315 314 312 310 308 307 306 305 303 303 302 301 301 301 301 301 300 300 300 299 299 299 299 299 300 300 300 300 300 299 299 299 300 300 301 301 302 302 302 303 303 303 304 304 304 304 304 304 303 303 302 301 300 300 300 299 299 299 299 299 299 298 298 297 296 296 295 296 296 295 295 294 294 295 295 296
312 313 314 317 320 320 320 320 318 321 322 318 317 318 319 320 318 317 318 315 312 313 313 311 309 307 306 304 303 302 302 301 300 299 299 299 299 300 299 299 299 298 298 298 298 299 299 299 299 299 299 298 298 298 299 300 300 300 300 301 301 302 302 302 303 303 303 303 303 303 303 302 301 300 300 299 299 299 298 298 298 298 298 298 297 297 296 296 295 295 295 295 295 294 294 295 295
312 314 316 318 319 320 321 321 320 321 319 315 315 318 319 319 317 317 316 312 310 310 310 309 307 306 304 303 302 302 301 300 299 298 298 298 298 299 298 298 298 298 297 297 297 298 298 298 298 298 298 298 297 298 298 298 299 299 299 299 300 300 301 301 301 302 302 302 302 302 302 302 301 301 300 299 299 298 298 298 298 298 298 297 297 297 296 296 295 295 295 295 295 294 294 294 295
315 316 317 318 318 318 319 319 318 320 320 317 315 318 320 318 317 315 312 310 309 308 307 306 305 304 303 302 301 300 300 299 298 298 297 297 297 297 297 297 297 297 297 296 297 297 297 297 297 297 297 297 297 297 297 297 297 298 298 298 299 299 299 300 300 300 301 301 301 301 301 301 301 301 300 300 299 298 298 298 297 297 297 297 297 296 296 296 295 295 295 295 295 294 294 294 294
316 315 316 317 318 318 319 319 320 321 321 320 317 318 318 317 317 314 310 308 308 306 305 305 303 303 302 301 300 299 299 298 298 297 296 296 296 296 296 296 296 296 296 296 296 296 296 296 297 297 297 296 296 296 296 296 296 296 296 297 297 298 298 298 299 299 299 300 300 300 300 300 300 300 300 300 299 298 298 298 297 297 297 297 296 296 296 296 295 295 295 295 294 294 294 294 294
315 314 316 316 316 317 319 320 320 320 320 320 318 318 316 315 316 313 309 308 307 305 305 304 303 302 301 300 300 299 298 297 297 296 295 295 295 295 295 295 295 295 295 295 295 295 295 295 296 296 296 296 296 296 296 296 296 296 295 295 296 296 297 297 298 298 298 298 299 299 299 299 299 299 299 299 299 298 298 297 297 297 296 296 296 296 296 295 295 295 294 294 294 294 294 293 293
315 315 316 315 315 315 316 318 319 318 318 318 316 317 315 314 315 313 310 309 307 305 304 304 303 302 301 300 299 298 298 297 296 296 295 295 295 294 294 294 294 294 294 294 294 294 294 294 294 295 295 295 295 295 295 295 296 295 295 295 295 295 295 295 296 297 297 297 298 298 298 298 298 298 298 298 298 298 297 297 297 296 296 296 296 295 295 295 295 294 294 294 294 294 293 293 293
314 314 313 314 316 316 315 318 318 318 318 317 316 316 315 314 315 314 312 309 307 305 304 303 302 302 301 300 298 298 297 297 296 295 295 295 294 293 293 293 293 293 293 293 293 293 293 292 293 293 294 294 294 294 294 295 295 295 295 294 294 294 294 294 294 294 295 296 296 297 297 297 297 297 297 297 297 297 297 296 296 296 296 295 295 295 295 295 294 294 294 294 293 293 293 293 293
311 311 312 313 315 315 316 317 317 317 318 317 318 317 316 315 314 313 311 309 307 306 304 303 301 301 300 299 298 297 297 296 295 295 294 294 294 293 292 292 292 292 293 293 293 292 291 291 291 292 292 292 292 292 293 293 294 294 293 293 293 294 294 294 294 293 293 294 294 295 295 295 296 296 296 296 296 296 296 296 295 295 295 295 295 294 294 294 294 294 293 293 293 293 293 293 292
312 312 313 313 314 314 315 315 314 315 316 317 318 318 317 314 311 310 309 307 306 306 304 303 301 299 298 297 296 296 295 295 294 294 293 293 292 292 291 291 291 292 292 292 293 292 291 290 290 290 290 290 290 291 291 292 292 292 291 291 291 291 292 293 293 293 293 293 293 293 293 294 294 294 295 295 295 295 295 295 295 295 295 294 294 294 294 294 294 293 293 293 293 293 292 292 292
314 313 314 314 314 314 315 316 315 314 315 317 318 318 318 312 308 307 307 305 305 305 303 302 300 298 297 296 295 294 294 293 293 292 292 292 292 291 291 291 290 291 291 291 292 291 291 290 289 289 288 288 288 288 289 290 290 290 289 289 289 289 289 290 291 292 292 293 293 293 292 293 293 293 294 294 294 294 294 294 294 294 294 294 294 294 294 293 293 293 293 293 292 292 292 292 292
Wind_Speed
5 4 4 4 5 6 6 4 4 2 3 5 3 2 2 4 4 4 3 1 1 3 6 5 4 4 5 6 7 10 9 8 6 6 3 4 0 4 11 12 13 13 19 18 16 25 26 26 24 23 22 20 20 18 18 16 15 15 14 14 14 13 11 11 10 10 9 9 9 9 9 9 9 8 8 7 6 5 5 6 6 6 6 6 6 6 5 4 5 4 3 2 2 1 0 2 3
3 4 4 4 5 5 3 1 4 3 3 5 0 2 4 2 1 3 2 5 4 4 4 5 5 6 7 7 8 10 7 6 6 6 2 4 1 2 10 13 13 13 17 17 16 24 27 26 25 24 22 21 20 19 18 17 16 15 15 14 14 13 12 11 10 10 10 10 10 10 10 10 10 9 8 7 6 5 5 6 6 5 6 6 6 5 4 3 4 2 4 3 3 3 4 4 5
2 4 4 4 5 5 3 2 4 4 4 4 2 4 3 2 2 3 4 5 4 4 3 4 4 5 7 7 7 7 4 2 3 5 0 1 1 2 8 13 15 13 16 16 15 23 25 23 25 25 22 22 20 20 19 17 17 16 15 15 14 14 13 12 11 11 10 11 10 10 10 10 10 8 7 7 5 4 5 6 6 6 5 5 4 4 3 2 3 2 5 5 5 5 6 6 7
1 3 4 5 4 4 4 4 4 5 4 3 2 4 3 3 3 4 4 4 3 3 3 3 3 2 5 7 4 5 5 3 2 3 1 2 2 2 5 13 16 14 15 16 15 20 23 21 25 26 23 22 21 20 19 18 17 16 16 16 15 14 13 12 12 12 11 11 11 11 11 10 9 8 7 6 5 4 4 5 6 8 5 4 3 2 3 2 2 3 6 6 6 6 8 8 8
1 3 4 5 3 2 3 3 3 4 4 3 3 3 4 3 4 5 5 4 3 3 4 3 2 2 4 6 4 4 3 2 3 1 1 2 1 3 5 13 17 15 14 16 16 17 20 21 24 26 24 22 22 21 20 19 18 17 16 16 15 14 13 13 12 12 12 12 11 11 10 9 8 7 7 6 7 6 5 4 5 6 6 6 5 4 4 2 2 4 7 7 8 9 9 9 8
3 3 4 5 3 2 3 4 3 4 2 3 5 5 5 4 5 6 6 6 1 2 3 4 4 2 5 4 5 5 4 3 1 0 1 1 3 4 6 12 17 14 14 17 17 16 18 21 22 26 25 22 22 21 20 20 19 18 17 17 16 15 15 14 14 13 13 13 12 11 10 9 7 6 7 7 7 7 6 6 6 5 5 8 7 5 5 4 4 7 9 9 10 10 9 8 7
5 3 3 4 2 1 4 4 4 4 2 3 5 6 7 7 6 6 7 5 1 2 3 4 3 5 6 2 5 7 6 5 2 2 4 3 3 4 7 11 16 14 14 17 18 16 17 21 21 25 26 22 22 22 21 21 20 19 18 18 17 16 16 16 15 14 14 13 12 11 10 9 7 7 7 8 9 9 8 7 7 7 6 7 7 6 5 5 6 9 10 10 11 10 8 8 7
5 3 1 3 3 3 4 5 4 4 2 2 5 6 7 7 7 7 7 5 2 1 4 4 3 6 3 3 4 4 6 7 7 8 6 6 5 5 7 11 14 14 15 18 18 16 18 21 22 25 26 23 22 22 22 21 20 20 19 19 18 17 17 17 16 15 14 12 11 10 10 9 8 8 10 12 12 12 10 7 7 8 8 7 7 6 6 6 8 10 10 10 9 8 8 7 6
4 3 1 3 4 3 5 5 4 3 2 3 4 5 6 6 5 5 7 5 3 3 3 3 4 5 2 2 6 4 7 6 8 10 10 10 8 7 7 11 13 14 16 17 18 16 18 21 22 26 27 23 23 23 22 21 21 20 19 19 19 18 18 17 17 16 14 12 12 11 11 9 9 11 12 12 13 13 11 8 8 8 8 8 8 7 7 7 9 9 9 9 8 8 7 6 4
4 2 2 3 3 4 4 4 2 1 2 3 5 6 5 4 4 4 6 5 2 3 1 1 4 8 7 7 7 2 6 5 5 7 9 10 9 8 8 12 12 13 16 17 18 16 18 22 22 27 27 24 24 23 23 22 21 20 19 19 19 19 18 17 17 17 15 14 13 13 12 11 12 13 11 11 13 12 10 9 9 9 9 9 8 8 8 7 8 8 8 8 7 6 4 3 1
3 2 2 3 4 5 4 4 4 4 4 4 4 3 3 2 3 4 4 5 3 3 2 3 4 8 9 9 6 3 5 3 3 3 6 9 9 8 8 12 12 13 16 17 17 15 17 20 23 28 28 25 25 24 24 23 22 21 21 20 20 19 19 18 17 16 16 16 15 14 12 13 14 13 12 14 16 12 10 11 10 10 9 9 9 8 9 8 8 8 8 7 5 3 2 1 1
3 2 2 4 4 4 5 6 6 7 8 5 1 3 1 1 2 4 3 5 4 6 5 7 1 3 7 8 3 5 6 4 4 4 6 6 6 8 8 10 12 12 14 17 17 15 17 17 22 29 28 26 25 25 24 24 23 22 22 22 21 21 20 18 18 17 18 17 16 14 14 14 13 13 15 16 17 13 11 12 11 11 11 10 10 9 9 9 8 8 8 6 4 3 2 2 2
4 2 3 5 4 5 6 7 6 6 7 2 3 5 2 2 4 5 4 6 7 9 4 5 1 4 8 9 4 4 6 5 6 6 6 4 3 7 9 7 11 13 13 18 17 17 18 14 20 27 28 28 26 26 25 25 25 24 24 23 23 22 21 20 20 20 19 18 18 17 17 17 15 16 16 15 16 14 12 13 12 12 12 11 11 10 10 10 9 9 7 5 4 3 3 2 2
3 3 4 5 3 6 6 6 5 5 5 2 4 4 3 4 4 3 5 9 9 6 3 1 2 4 8 8 6 2 4 5 5 6 5 6 5 6 9 7 9 12 12 17 19 18 18 16 19 24 27 28 26 26 26 26 26 26 25 25 24 24 23 22 21 21 20 20 20 20 20 19 19 19 18 16 16 14 13 13 13 13 12 12 11 11 11 11 10 9 7 5 4 3 3 2 2
3 2 3 5 5 6 4 4 5 5 5 3 3 3 3 6 4 4 6 8 8 4 3 3 3 3 6 7 4 4 5 3 3 4 5 8 7 6 9 9 9 13 13 15 19 19 18 18 20 22 24 26 25 24 25 26 27 27 26 26 26 24 24 23 23 22 21 21 21 21 21 20 20 20 21 19 16 15 15 15 14 13 13 12 12 12 12 12 10 8 7 6 5 4 3 3 3
3 3 3 5 6 6 2 2 4 3 4 4 4 4 4 6 5 6 3 3 8 6 4 5 6 7 10 11 5 6 5 2 1 2 4 6 7 6 8 10 9 12 14 15 18 19 20 21 22 23 25 25 23 23 22 24 28 28 27 27 26 26 25 25 24 24 23 23 22 22 22 21 21 21 22 20 17 17 16 15 15 14 13 13 13 14 13 12 10 9 8 6 5 4 4 3 3
2 3 5 5 6 6 3 2 3 4 7 6 2 4 6 7 3 4 1 2 10 11 11 10 8 10 14 13 3 5 4 3 2 3 4 5 6 6 8 10 10 12 15 17 19 20 21 22 23 24 25 26 26 25 24 23 27 29 29 28 27 27 26 26 26 25 25 24 23 23 23 22 20 19 21 19 17 17 17 17 16 15 13 13 15 15 14 12 11 10 8 7 5 4 4 3 3
3 4 5 6 6 6 3 4 6 7 9 9 6 4 7 10 6 2 1 7 11 13 14 14 13 13 18 15 7 8 9 7 6 6 7 7 7 8 9 10 13 14 15 18 20 21 22 24 25 24 24 27 28 28 27 26 26 28 30 29 29 28 27 27 27 26 25 24 24 25 23 20 18 16 17 18 17 16 18 18 17 17 14 14 16 15 14 13 12 11 9 7 6 5 4 4 4
5 5 6 6 7 8 5 6 9 9 10 11 11 11 9 10 10 4 6 12 10 13 14 13 15 15 17 17 14 14 11 9 9 9 10 11 11 11 11 12 14 16 16 18 21 24 24 24 26 27 26 26 28 29 28 26 25 26 28 28 28 28 28 28 27 26 24 22 23 25 22 19 18 16 16 18 17 17 18 19 18 18 16 16 16 15 14 14 13 12 10 8 7 6 5 4 4
6 5 7 7 8 10 7 7 9 10 11 12 12 12 11 11 10 7 9 13 11 13 14 13 15 13 12 11 12 13 13 12 11 12 13 14 14 14 14 14 15 17 19 19 20 24 25 25 25 28 27 26 27 30 29 26 25 25 25 26 26 25 26 28 27 24 23 22 22 23 21 19 19 17 17 20 19 17 18 20 20 19 19 18 17 16 15 15 14 13 11 9 8 7 7 5 3
4 5 8 9 9 10 8 9 10 9 9 11 13 12 13 12 8 7 9 12 10 12 13 14 16 15 13 12 12 8 11 12 12 14 14 15 16 16 17 17 16 16 17 17 18 22 27 28 25 26 28 28 28 30 30 28 27 25 24 26 26 24 24 25 25 24 22 24 23 21 21 20 20 17 17 21 20 17 17 20 21 21 20 19 18 16 16 17 16 14 12 11 10 9 7 6 4
4 7 11 12 12 12 9 10 7 5 7 9 12 13 13 10 7 9 12 12 10 11 13 16 18 18 17 15 14 9 9 11 12 14 15 17 18 19 18 18 17 16 15 17 19 21 26 29 27 27 28 28 28 29 29 28 28 27 26 26 26 25 25 24 25 25 23 24 24 22 22 21 21 19 18 21 21 17 17 19 21 20 18 19 19 16 16 18 17 15 13 12 12 10 9 8 7
6 10 12 13 13 12 11 10 2 2 9 11 12 12 12 12 13 13 14 16 15 15 17 19 20 20 19 16 14 11 11 12 14 16 17 18 19 20 20 19 18 16 16 17 19 19 22 27 28 27 27 28 28 27 27 27 28 28 27 27 27 26 25 25 25 25 24 24 25 24 23 23 22 21 18 21 22 19 18 19 20 20 18 19 20 16 15 18 17 16 15 14 13 12 11 9 8
8 11 12 13 13 12 12 11 4 4 11 13 11 12 14 16 15 15 16 17 17 18 19 20 20 20 19 16 14 13 14 14 16 19 20 19 20 21 20 19 18 16 16 17 17 17 19 24 27 27 27 28 28 28 26 26 27 27 28 28 27 26 24 25 25 24 24 25 26 26 25 23 23 22 19 21 22 20 19 19 19 19 18 19 20 17 18 21 18 17 17 16 14 12 11 10 9
12 13 13 12 12 12 11 12 10 9 11 11 11 14 16 17 15 18 21 19 19 19 19 20 19 18 16 15 15 13 14 15 16 19 20 18 20 19 18 18 16 16 18 17 16 17 19 22 26 28 28 28 28 29 28 26 25 25 29 28 26 27 25 23 23 23 24 24 26 27 26 24 23 23 21 21 22 21 20 20 19 19 19 20 21 20 21 22 19 19 18 16 15 13 12 11 10
7 10 11 11 11 12 12 13 14 12 10 8 10 15 17 16 13 18 20 16 15 16 16 17 16 16 14 13 13 13 14 14 14 17 18 17 16 16 17 15 14 17 19 18 16 18 19 21 25 28 30 29 28 28 28 27 25 25 28 28 26 28 26 22 22 23 24 24 26 29 29 27 25 23 22 21 22 23 21 20 20 19 20 21 24 24 24 23 21 21 19 17 16 15 14 13 11
5 7 10 12 14 15 15 16 16 14 12 12 12 14 16 13 9 12 14 10 9 9 11 13 13 15 15 13 12 11 13 14 15 16 16 14 12 13 14 13 15 18 19 18 19 19 19 22 25 28 30 30 28 27 28 28 26 25 25 25 25 26 27 24 23 24 24 24 27 30 31 32 28 23 23 23 23 24 23 23 24 23 23 25 27 27 25 23 22 22 20 19 18 16 15 14 13
7 9 11 15 17 16 16 18 17 13 10 9 11 13 15 13 10 15 16 13 12 12 12 12 13 15 15 16 14 11 11 14 15 14 13 13 11 10 12 14 17 19 20 22 22 20 20 23 26 28 29 30 31 28 28 30 27 25 24 24 25 25 26 27 25 24 25 25 28 32 36 38 34 26 24 26 25 25 25 27 28 28 27 28 28 27 26 24 23 22 21 20 18 17 16 15 14
7 7 10 15 15 15 18 17 14 11 5 4 5 9 12 12 13 18 18 15 13 12 12 14 14 14 14 14 13 11 12 14 14 12 12 13 11 12 14 15 18 19 21 24 24 22 21 23 25 27 28 30 33 32 30 31 28 25 25 24 24 25 26 27 26 25 26 26 29 35 39 40 38 32 28 29 28 27 29 31 31 30 30 29 29 28 27 26 24 23 23 21 19 18 17 16 15
7 8 8 11 12 12 14 10 4 5 5 8 5 6 7 10 13 16 12 8 9 9 12 16 15 14 13 13 12 13 14 14 14 13 13 13 12 14 16 17 17 18 18 18 21 22 22 24 24 25 27 29 32 33 30 30 28 27 26 23 23 25 25 26 26 26 26 26 29 36 39 39 40 37 32 31 31 31 31 32 32 32 31 30 30 29 29 28 26 25 24 22 21 19 18 17 16
8 10 6 7 8 7 8 4 6 4 4 10 7 7 7 10 12 13 7 3 5 10 14 18 17 15 13 13 13 14 15 14 15 16 15 14 14 14 15 16 16 17 16 14 17 20 21 24 25 25 28 29 30 32 30 27 27 28 26 24 24 26 26 24 25 26 25 26 31 36 39 40 40 39 36 33 34 33 32 33 33 33 32 31 31 31 30 29 27 26 25 23 22 20 17 17 16
8 8 6 7 7 7 8 5 7 6 3 10 9 6 8 9 9 10 8 6 8 13 17 19 18 17 16 14 13 14 14 12 13 15 14 13 13 12 13 15 15 15 16 14 14 17 18 20 24 26 27 28 28 30 30 26 24 25 25 24 24 26 27 25 24 25 24 27 33 37 39 40 40 40 38 36 36 35 33 34 34 33 33 33 32 32 31 29 28 26 26 25 23 21 17 17 16
7 8 8 8 9 9 8 5 7 7 2 9 12 8 9 9 10 12 14 16 16 16 18 21 20 18 16 13 12 12 11 10 9 9 10 11 12 13 13 13 13 13 13 14 13 13 15 16 21 24 25 27 26 25 26 25 22 21 21 22 23 24 25 26 24 23 24 28 34 37 38 41 41 41 40 38 37 36 35 35 34 34 35 35 34 33 32 30 29 27 27 25 24 22 18 18 15
6 7 8 9 11 10 8 7 7 3 5 9 12 11 12 12 13 15 17 18 17 16 19 21 19 16 15 13 11 10 10 8 6 6 9 11 13 14 14 13 12 11 10 11 11 11 12 12 16 20 22 22 21 21 22 23 21 19 19 19 21 21 23 24 22 21 23 26 32 35 36 39 41 42 41 40 39 37 36 35 34 35 36 36 35 34 33 30 29 29 29 27 23 21 19 19 16
9 9 9 10 11 11 12 10 7 5 9 12 12 13 15 15 14 14 16 17 16 18 18 17 17 17 16 14 11 10 7 4 5 7 10 12 14 15 15 14 12 10 8 8 7 8 9 9 10 14 16 15 16 17 18 19 18 18 17 16 18 19 20 21 20 21 21 24 29 33 34 37 40 42 43 43 41 37 37 36 34 36 37 36 35 35 34 30 29 29 29 28 24 19 18 18 17
16 14 11 12 13 13 14 14 12 13 15 14 14 16 16 16 15 14 16 17 18 19 17 14 15 16 16 13 7 4 4 5 5 8 10 13 15 16 15 15 14 12 9 8 6 4 5 7 7 8 10 12 13 14 14 15 16 16 16 15 16 18 19 20 21 21 21 23 29 33 35 37 39 41 43 44 42 40 38 37 35 36 37 36 35 35 34 33 32 31 29 29 27 21 17 16 17
17 15 12 14 14 13 13 15 14 13 13 11 12 15 16 16 16 16 18 19 18 17 16 14 15 16 13 7 3 6 5 4 5 8 14 16 16 17 16 16 16 15 14 12 9 6 4 4 5 5 7 9 12 12 13 14 15 16 16 17 17 17 17 18 20 21 21 23 28 32 35 37 38 40 41 43 43 40 38 36 36 36 36 36 36 36 35 34 34 33 29 29 30 26 21 18 19
15 13 12 13 12 12 14 16 14 10 8 8 11 14 15 16 17 19 20 18 15 14 14 15 17 14 4 4 6 5 4 4 6 11 15 17 20 21 19 18 19 18 17 16 15 11 7 5 4 4 5 8 10 11 12 13 14 15 14 16 16 16 16 17 18 19 20 21 24 28 31 34 36 38 39 40 41 41 39 36 36 37 37 36 35 34 34 33 34 33 31 30 30 29 25 22 23
13 10 11 10 9 12 13 12 8 3 2 8 13 14 14 16 20 22 17 14 13 12 14 17 14 6 4 6 5 5 7 9 11 12 13 17 21 22 21 21 20 19 18 19 19 17 13 10 7 5 4 5 7 9 11 11 12 13 13 12 12 12 13 13 15 16 16 18 20 24 27 29 32 34 36 37 38 40 39 37 35 36 38 37 35 35 34 35 36 34 34 33 30 27 23 23 27
10 9 9 9 10 11 10 5 2 2 5 10 13 12 12 14 17 16 9 7 9 11 17 16 5 4 6 7 8 9 11 11 12 12 13 16 20 22 22 22 21 19 19 21 22 20 18 16 13 10 6 4 5 7 9 10 9 10 10 10 10 10 9 9 10 12 14 15 16 20 24 27 28 30 32 34 36 38 37 37 36 37 39 39 38 38 37 38 39 37 36 34 31 27 21 22 29
9 9 9 11 12 13 12 10 9 10 10 8 9 11 8 5 6 5 4 5 6 12 16 6 6 7 8 11 12 13 13 12 12 12 13 15 18 20 22 22 22 21 21 22 22 22 20 19 17 14 10 7 6 5 6 8 8 7 8 9 10 11 11 10 10 11 13 14 17 20 24 27 28 30 31 32 35 37 36 35 35 36 38 40 41 41 40 41 41 41 40 36 35 33 27 24 29
9 9 10 12 13 13 14 14 11 9 6 1 5 9 5 0 2 5 5 4 8 14 9 5 11 9 10 12 12 13 14 12 12 13 14 14 16 20 23 24 24 23 23 21 22 23 22 21 20 17 13 10 8 6 6 6 7 8 8 9 10 10 11 12 12 13 13 14 18 21 23 27 30 31 32 33 34 36 37 35 33 35 38 40 42 41 39 40 41 42 42 39 38 37 31 26 28
7 4 4 7 9 11 11 10 8 6 6 2 2 5 6 4 7 11 8 8 14 11 5 13 12 11 12 12 11 12 12 11 12 13 14 14 17 20 22 24 23 22 22 21 22 25 24 23 22 19 16 12 11 9 7 6 7 8 9 10 11 11 11 12 11 12 12 12 14 16 19 24 28 30 32 33 34 36 38 38 35 35 37 39 40 39 37 39 43 43 42 41 41 39 33 28 30
5 2 4 5 7 9 8 7 6 6 9 8 5 7 8 7 7 6 6 11 14 2 13 13 11 12 13 14 13 12 12 12 11 12 14 14 17 19 19 21 21 20 20 21 24 26 25 23 23 21 18 15 13 12 9 7 7 8 9 10 11 11 12 13 11 10 10 10 10 12 14 17 22 26 28 31 34 35 37 39 38 38 38 38 38 38 37 37 41 42 42 41 40 39 37 33 31
2 4 3 4 4 7 6 5 7 7 8 8 5 7 7 8 4 2 7 11 6 9 14 12 13 13 13 14 14 13 13 13 13 13 13 14 16 18 19 19 19 18 19 22 25 26 25 23 23 22 20 17 16 15 12 9 8 9 9 10 10 11 11 12 12 10 9 9 10 11 12 13 16 21 24 26 31 34 36 37 38 39 39 38 38 39 39 36 37 41 43 43 41 40 40 37 33
1 3 1 2 3 6 5 6 7 6 7 9 6 10 6 8 4 4 6 5 2 11 11 11 14 13 12 12 12 13 12 12 13 13 12 14 16 17 17 17 17 17 20 24 26 26 25 24 23 24 23 19 18 18 15 13 10 9 10 10 11 12 12 11 11 11 10 9 10 10 12 13 13 16 20 23 27 31 35 36 37 39 40 39 38 39 40 37 36 39 43 45 44 41 39 40 36
1 1 4 5 7 6 5 6 4 4 8 9 7 13 8 6 3 2 2 1 4 7 9 11 13 13 13 12 11 12 12 11 11 10 11 13 14 15 15 17 18 20 22 25 26 25 24 24 23 23 24 22 21 20 18 16 13 11 11 11 12 12 12 12 12 12 12 11 11 10 11 12 12 14 17 20 24 28 32 34 36 38 39 38 38 39 41 39 37 38 41 43 44 42 40 40 39
1 4 4 6 6 4 4 4 3 5 7 4 2 10 9 7 1 2 2 5 8 6 8 12 13 13 12 11 11 11 11 11 10 9 10 11 12 14 17 19 20 22 24 25 24 23 21 22 22 22 24 23 22 21 20 18 16 14 13 13 13 13 12 12 12 13 12 12 13 12 11 11 12 13 14 17 21 25 29 31 33 35 36 37 38 40 41 40 38 37 39 41 43 43 41 40 39
3 4 4 5 5 4 5 4 4 6 4 2 2 3 6 9 6 6 5 6 12 9 9 13 14 12 11 11 10 9 9 10 9 9 9 9 10 13 17 19 19 21 23 22 22 21 19 20 21 21 23 24 23 23 21 20 18 17 16 15 14 13 13 12 12 13 13 13 13 12 12 12 12 12 14 17 20 23 26 27 29 33 35 36 37 38 39 39 38 37 37 40 42 43 44 42 40
7 5 4 5 5 6 7 6 6 8 3 3 2 1 4 8 6 5 1 9 14 12 12 13 13 13 11 10 9 9 10 10 9 9 9 9 10 13 16 17 17 18 19 19 19 18 17 18 20 20 21 23 25 26 24 22 20 18 17 16 15 14 14 13 12 12 12 12 12 13 13 13 13 13 13 16 20 22 24 26 28 31 32 33 34 35 37 38 38 38 38 40 41 43 44 44 42
8 5 4 6 6 7 8 7 7 9 6 1 2 1 3 3 3 8 11 12 13 13 13 13 13 12 10 9 9 9 10 9 9 9 10 10 12 15 15 15 15 15 15 15 15 15 15 15 16 16 17 21 27 29 28 26 23 20 19 17 16 15 14 14 13 13 12 13 13 13 14 13 14 15 14 15 17 19 22 24 26 28 29 29 30 32 34 36 37 38 38 39 40 41 41 44 44
4 1 3 5 5 5 6 7 7 8 8 5 4 4 4 4 2 7 13 13 12 12 12 12 12 10 8 8 8 8 8 8 7 8 9 10 12 13 13 13 13 12 13 13 13 13 13 13 13 14 16 20 26 29 28 28 27 24 22 19 17 16 15 14 13 13 13 13 13 13 14 14 14 15 16 15 15 17 21 23 24 26 27 27 28 29 31 33 35 36 38 38 38 39 40 42 42
2 2 3 2 1 3 6 8 7 7 10 8 6 8 8 8 7 5 14 13 12 11 11 11 10 9 8 8 7 7 7 7 7 7 7 8 10 11 11 11 12 12 12 12 12 12 11 11 12 15 18 21 22 23 23 25 27 28 27 24 21 18 16 15 15 15 14 14 14 14 14 14 15 15 16 16 15 16 20 22 23 24 25 26 26 28 29 31 33 35 37 38 37 37 39 41 41
2 3 2 2 1 2 4 7 7 9 12 8 7 12 10 8 5 6 12 10 11 9 9 10 8 8 8 7 7 6 6 6 6 6 6 6 7 9 9 10 11 12 12 12 12 12 11 13 15 17 19 20 19 18 17 19 21 24 25 25 25 23 20 18 16 15 15 14 13 13 14 14 15 15 16 16 16 17 20 21 22 23 23 24 26 27 28 29 31 33 35 37 37 36 37 40 41
3 3 2 2 3 4 5 5 5 9 11 8 9 13 11 9 7 2 9 9 10 8 7 8 7 7 7 6 6 6 5 5 5 5 5 5 6 7 8 9 10 11 11 12 12 13 14 16 17 17 16 16 17 17 17 17 17 19 21 22 24 25 25 24 21 19 17 15 14 14 14 15 15 15 16 16 17 18 20 21 22 23 23 24 25 26 27 28 29 31 33 34 35 36 36 37 39
1 3 2 2 3 5 6 5 5 8 9 8 9 10 8 7 4 3 9 10 8 7 6 6 5 5 4 4 4 4 4 4 4 4 4 4 5 6 7 8 9 9 10 10 12 14 16 17 17 17 16 15 16 17 17 17 17 18 20 22 24 26 26 25 25 24 22 20 18 16 16 16 16 16 16 17 18 19 19 20 21 22 23 23 24 25 26 27 28 30 31 31 32 34 36 36 37
4 4 4 5 3 2 4 6 6 7 8 9 9 9 7 2 4 6 9 9 7 6 6 5 4 4 3 3 3 3 3 3 3 3 3 4 5 5 6 7 7 8 8 9 10 11 13 14 16 16 16 17 17 17 16 15 15 16 19 23 25 27 27 26 26 25 24 24 22 20 19 18 18 17 17 17 18 19 19 19 20 20 21 23 24 24 25 26 28 29 30 30 31 31 34 35 35
4 5 5 7 7 5 6 8 7 6 8 8 8 10 6 1 4 4 7 6 5 6 6 5 5 4 3 2 1 0 1 2 2 3 3 3 4 5 5 6 6 6 7 8 8 9 10 12 14 15 16 18 19 19 18 16 16 16 18 20 23 25 25 25 25 25 25 26 25 24 23 21 20 19 18 18 18 19 19 19 19 20 20 21 23 24 25 25 27 28 28 29 30 30 31 33 34
Wind_Direction
335 321 314 305 290 284 269 267 279 222 239 271 268 302 58 50 351 291 280 29 325 62 28 335 312 290 280 306 325 327 306 285 311 319 346 104 280 181 185 200 170 155 170 163 175 188 187 187 180 177 181 182 182 183 186 187 188 188 188 187 187 186 186 189 189 185 181 184 182 180 174 167 163 153 145 136 135 140 136 133 140 145 141 140 138 135 137 153 139 132 171 199 194 189 308 340 339
329 309 294 278 266 267 281 295 284 260 249 275 171 49 40 49 280 269 332 18 14 29 360 318 298 273 269 292 296 295 288 258 282 316 21 139 255 178 197 200 175 160 168 165 172 187 187 189 184 178 182 184 183 185 188 189 189 191 189 190 191 189 188 189 190 188 183 187 188 182 174 167 159 147 142 133 131 133 131 129 133 140 142 141 135 134 152 176 139 173 231 235 241 260 289 306 311
309 299 275 259 242 244 279 233 266 296 285 295 60 77 33 309 349 3 359 10 12 2 325 303 281 266 256 255 263 279 292 272 287 305 4 160 291 155 203 202 180 162 169 170 168 183 184 189 189 180 183 186 184 187 191 191 190 191 192 194 193 190 189 189 192 190 187 189 188 179 172 166 155 149 149 145 147 143 144 147 144 141 142 144 137 135 151 165 143 232 253 252 259 274 292 303 305
300 285 266 263 238 227 256 242 267 299 292 309 12 76 47 317 351 354 352 355 344 323 296 293 266 189 247 260 286 278 274 299 38 337 315 74 42 129 202 203 184 165 171 175 169 179 181 191 193 184 183 188 188 189 192 193 191 191 194 197 193 190 189 190 192 191 190 187 184 179 171 165 157 158 161 161 174 178 184 183 169 158 156 164 178 185 172 153 144 244 265 268 272 282 293 298 298
284 270 257 265 263 262 272 268 270 270 288 332 325 19 32 350 334 329 334 321 307 298 277 266 264 140 241 273 294 276 303 335 82 13 317 91 167 195 205 203 186 171 175 177 174 176 183 196 198 188 184 190 191 191 194 194 194 193 195 197 192 189 191 190 191 191 188 185 182 179 172 167 163 166 174 183 195 196 204 211 203 187 186 194 195 200 209 193 167 247 269 274 279 285 290 291 289
258 247 229 248 273 336 274 262 262 258 299 352 304 324 351 348 345 332 318 307 293 282 255 240 272 285 264 247 224 249 318 336 46 280 191 208 238 214 215 201 186 179 179 178 177 176 187 200 202 194 185 190 195 193 196 195 196 195 197 197 191 191 192 189 189 188 185 184 180 178 176 176 173 183 199 208 213 209 215 218 218 217 211 206 196 195 208 201 211 254 267 268 275 278 280 282 282
262 241 200 227 226 241 259 264 282 286 35 32 307 317 323 328 340 322 309 309 144 171 209 230 278 287 276 211 219 235 252 262 269 232 190 238 246 212 218 195 184 185 183 179 179 178 193 200 200 198 188 190 196 196 198 197 197 197 198 197 193 192 191 188 185 185 183 183 180 180 185 191 186 199 218 221 220 213 215 214 214 216 211 211 201 202 205 200 233 257 262 261 267 269 271 273 276
261 266 198 251 232 203 259 274 281 292 34 22 302 301 304 318 325 310 307 303 280 199 197 218 232 267 266 153 244 188 198 236 236 236 227 245 250 228 216 189 186 188 184 181 180 182 198 201 198 198 190 191 196 198 200 199 199 198 199 197 194 193 191 188 186 185 183 184 185 188 197 202 201 211 222 229 233 229 226 211 210 216 209 211 202 204 200 202 239 254 256 258 263 265 269 272 277
237 251 218 268 261 234 261 267 266 282 298 314 296 287 290 300 306 301 299 288 284 292 220 219 211 250 297 223 261 150 158 216 228 242 243 247 248 240 217 189 189 188 185 183 182 184 199 203 199 198 192 192 197 200 202 201 201 200 200 197 194 193 192 189 189 188 185 191 194 197 205 209 219 225 230 242 250 244 233 210 208 215 209 211 202 202 195 203 239 247 251 256 261 264 270 275 282
220 238 261 271 271 267 264 268 292 315 305 314 294 291 292 288 293 290 294 298 306 294 189 114 224 241 285 294 279 157 145 191 222 247 245 246 240 234 217 195 192 188 187 184 185 184 197 204 200 198 193 194 199 200 202 201 201 202 201 197 193 192 191 191 194 194 192 197 202 208 213 213 222 233 242 242 244 240 222 205 208 209 208 208 200 200 193 205 233 240 249 256 260 263 266 272 286
230 203 269 278 264 274 295 316 328 327 320 306 286 293 303 301 298 273 267 286 283 277 200 151 234 246 266 280 276 149 142 197 201 218 235 243 234 223 209 198 194 190 191 187 187 185 195 205 201 196 192 195 200 200 201 200 201 202 200 197 194 192 193 194 198 203 207 207 209 217 222 225 228 235 240 233 237 239 214 204 206 205 204 202 200 197 193 212 230 239 249 252 253 246 233 224 143
256 204 233 272 282 295 320 319 317 318 309 293 271 102 83 143 246 269 269 289 287 286 244 181 214 316 268 272 279 139 157 192 158 188 229 237 232 215 197 199 200 193 196 192 189 189 194 203 200 195 193 196 201 202 202 202 202 201 200 199 197 195 196 198 201 209 216 217 217 220 223 228 230 226 229 233 239 237 213 205 206 204 201 198 200 195 200 221 228 235 244 241 232 209 197 177 131
263 290 268 277 302 300 306 306 304 310 304 323 86 108 129 223 240 279 302 300 286 288 278 175 231 324 278 284 294 181 157 140 158 212 233 215 204 207 196 198 206 196 198 198 194 195 194 195 198 197 196 198 202 204 204 204 203 203 203 204 203 201 201 203 206 212 218 221 221 222 220 221 223 221 223 229 233 227 212 206 204 202 200 198 198 197 211 224 224 232 238 231 219 198 188 163 132
278 302 288 285 296 284 285 288 301 311 305 31 84 131 178 241 253 290 296 290 287 304 7 59 281 297 278 277 271 224 111 110 181 222 225 210 192 198 199 194 207 199 200 203 199 200 197 194 198 200 200 200 201 204 206 206 206 206 208 209 210 209 208 210 213 217 222 224 223 224 224 221 223 224 222 221 221 218 212 209 203 199 199 197 198 205 218 223 225 233 231 220 212 200 190 163 135
287 292 273 275 280 276 257 264 304 309 302 359 98 129 216 250 237 252 270 276 298 2 10 282 213 257 286 285 302 72 94 118 189 219 216 218 207 202 203 202 210 202 204 206 203 204 199 198 200 203 204 203 202 204 207 208 209 210 212 213 214 215 215 217 219 222 225 225 224 224 223 221 223 224 222 220 218 215 212 212 208 201 197 197 203 212 220 223 228 229 222 214 206 201 191 165 142
268 281 256 263 273 277 237 241 295 279 312 7 114 137 268 271 219 238 283 281 295 310 274 252 197 232 274 283 311 90 125 164 155 219 209 213 207 205 209 212 214 208 210 207 206 206 202 201 201 204 206 206 205 205 208 211 214 214 214 217 217 218 220 222 222 222 223 224 224 223 220 219 222 223 223 221 218 217 214 214 212 202 196 201 209 216 220 224 226 223 219 212 203 199 184 168 151
243 257 251 260 263 270 258 245 294 297 319 337 157 167 277 295 214 201 26 258 271 280 269 261 231 234 256 266 268 142 200 234 233 221 183 192 197 200 210 211 210 211 213 210 210 208 206 205 203 204 206 208 207 208 210 211 217 218 217 219 220 221 222 223 221 220 221 223 224 222 218 218 219 221 223 222 219 220 217 214 212 205 197 203 213 218 221 223 223 221 218 211 202 194 176 168 157
223 236 248 258 261 276 291 276 301 306 301 307 301 291 285 291 282 197 238 252 256 270 268 267 255 241 248 253 238 223 240 236 218 209 193 197 200 205 208 205 207 210 211 211 212 209 206 207 205 204 206 208 208 209 211 212 219 222 220 220 222 222 223 222 219 218 219 219 221 220 216 214 213 215 217 214 213 216 217 215 214 209 198 202 213 217 220 221 220 218 215 207 197 190 181 173 165
228 251 259 256 261 282 297 287 298 299 295 301 301 300 292 285 291 290 274 274 276 279 274 272 268 256 250 244 230 223 226 221 206 209 217 215 215 219 218 208 207 210 209 208 211 209 206 206 206 206 206 207 208 210 211 213 216 219 220 220 220 220 220 220 217 216 215 214 218 217 212 209 208 208 209 208 207 209 214 215 213 210 203 205 213 215 218 218 216 215 211 205 198 192 189 183 175
236 243 259 259 267 280 280 283 289 288 293 295 294 300 295 281 284 278 267 278 280 275 275 277 276 275 274 261 245 222 211 222 215 218 229 229 228 228 230 223 212 211 211 209 210 209 206 206 206 206 207 207 208 209 211 211 212 216 218 216 215 214 216 217 214 210 209 208 214 213 206 206 204 204 209 208 205 204 209 213 209 208 208 210 213 210 212 214 214 214 208 204 202 197 192 191 187
241 222 251 269 282 286 278 286 287 282 292 292 293 296 288 284 284 265 262 276 271 261 267 276 281 289 296 295 293 255 209 222 224 223 230 233 234 232 234 234 227 221 213 209 208 208 209 208 205 206 207 206 207 208 211 213 212 216 215 211 211 212 211 213 210 205 204 205 207 207 203 203 200 199 205 205 202 196 200 206 204 204 206 210 210 206 208 211 213 212 206 203 203 200 195 194 194
258 236 250 267 277 280 280 292 290 283 290 286 285 284 286 292 281 260 259 263 261 264 272 280 285 292 296 294 299 283 225 232 238 235 235 234 235 235 236 236 236 230 215 210 209 209 213 211 207 206 205 205 206 207 210 214 215 217 215 213 211 211 209 208 207 202 202 203 202 203 201 201 198 196 198 198 197 192 193 196 196 197 198 206 207 199 205 212 211 210 205 202 201 201 200 199 199
256 258 256 264 271 274 282 294 286 242 278 274 277 283 290 289 279 274 265 259 261 268 272 277 282 285 291 290 288 275 247 251 256 251 245 240 237 236 235 234 234 229 218 214 213 211 211 212 208 206 205 205 205 206 208 211 215 216 216 214 210 209 206 205 205 200 200 201 200 201 199 198 196 194 195 194 195 191 192 190 190 193 190 201 204 191 201 211 210 208 205 202 202 203 204 205 207
246 267 270 271 274 275 281 288 267 241 263 266 277 284 282 278 283 286 274 268 271 271 269 272 277 281 284 284 277 266 257 260 260 257 252 246 243 240 237 236 236 232 226 222 217 214 210 211 210 206 206 206 205 206 206 209 212 212 213 212 208 207 203 202 202 197 198 199 199 200 199 198 194 194 194 193 193 191 193 189 188 192 187 197 201 190 202 210 208 207 205 205 205 206 208 208 211
243 256 268 273 274 274 279 282 269 255 257 262 270 270 269 271 281 284 277 275 272 267 268 270 275 279 279 276 272 265 261 260 259 260 256 248 244 244 242 238 237 234 233 229 220 216 214 214 213 211 210 208 207 206 205 208 210 208 211 210 205 206 203 200 200 196 197 198 198 201 201 198 193 195 195 192 192 191 191 189 187 190 188 195 199 196 207 210 205 206 207 207 207 207 209 210 212
255 259 276 284 282 282 281 278 269 259 257 257 257 260 267 274 281 277 271 272 271 265 264 269 276 284 282 276 271 263 261 259 256 259 259 252 242 240 241 238 234 233 234 233 225 220 216 215 214 215 215 211 207 205 205 207 209 208 209 209 205 207 205 199 200 198 198 200 199 202 202 199 195 195 195 192 192 193 190 189 189 189 190 198 202 203 209 209 205 208 207 205 206 206 208 210 211
312 293 293 287 283 284 277 273 269 260 261 256 248 260 273 280 276 268 269 270 275 275 269 270 276 284 287 284 275 263 258 254 251 255 259 256 243 236 238 233 233 234 234 230 226 222 216 215 217 218 217 215 210 206 208 209 209 210 209 208 206 206 204 202 202 200 200 201 199 201 203 205 203 196 195 195 194 194 193 193 196 196 199 205 207 207 209 207 206 209 207 205 205 204 207 209 208
300 300 298 283 279 279 270 267 265 257 258 251 241 260 275 273 251 250 265 271 273 278 279 276 274 278 282 283 280 267 256 250 249 249 251 255 248 239 234 230 234 235 237 235 231 224 215 217 220 220 216 216 215 208 210 213 210 212 211 208 208 206 205 206 205 203 203 203 202 206 210 213 211 202 200 202 199 196 198 202 204 204 206 209 210 210 209 205 204 207 206 205 203 202 206 208 206
285 290 288 283 282 276 270 265 260 250 229 164 216 256 264 255 241 243 253 263 269 270 278 284 281 279 278 277 278 271 262 258 257 253 252 258 256 248 243 242 241 237 242 245 240 226 217 218 219 219 214 213 217 212 211 214 210 209 211 210 210 208 206 207 206 204 205 204 206 214 217 216 214 209 207 208 205 203 205 208 208 208 210 212 212 210 208 205 203 206 206 204 202 202 206 207 204
277 277 269 282 286 276 274 263 222 227 183 143 191 264 270 264 261 264 271 279 278 272 281 291 289 284 280 274 274 270 267 264 266 269 273 274 267 256 251 254 251 241 241 243 238 228 222 226 222 217 214 211 217 216 210 212 209 208 210 209 209 207 205 207 207 206 206 205 210 218 220 216 214 213 211 211 210 209 210 211 211 211 211 212 212 210 209 206 205 207 206 204 204 204 206 208 204
272 278 253 261 273 273 280 240 157 193 170 158 206 263 277 279 279 285 310 339 279 278 285 289 286 283 279 273 270 268 268 267 271 280 288 289 283 272 260 262 262 255 249 239 236 236 230 230 227 221 219 214 215 217 212 209 209 208 208 207 208 208 208 208 209 209 208 207 213 221 221 217 216 214 213 213 214 212 212 213 213 213 212 212 213 212 210 207 207 208 206 203 203 202 203 207 201
260 273 260 247 255 271 280 236 195 237 198 171 205 262 273 270 281 291 307 298 279 283 286 285 282 280 279 275 271 270 273 276 281 288 294 294 294 294 281 274 274 269 264 254 244 240 230 227 230 227 225 219 215 217 213 209 209 209 209 208 209 211 211 210 210 210 209 211 218 223 223 219 217 216 214 215 216 215 214 215 216 214 213 213 213 213 210 207 206 207 206 203 201 198 197 201 195
245 250 260 264 268 280 284 270 261 266 182 184 212 257 279 272 284 293 295 291 288 286 284 282 281 281 281 280 277 278 283 289 294 299 306 311 316 320 311 301 294 285 278 270 259 246 232 226 230 230 229 224 215 213 211 209 210 208 209 211 211 211 212 212 212 211 211 216 221 224 224 222 219 217 216 217 218 217 216 217 217 216 215 215 213 212 209 206 205 204 203 202 200 196 194 195 187
256 250 257 263 267 281 286 290 296 232 184 219 229 244 265 271 281 286 284 284 284 278 274 275 280 285 285 284 285 288 290 299 321 330 330 340 349 348 340 333 320 307 297 283 271 260 249 235 229 231 232 225 213 209 208 208 209 208 210 213 212 212 214 215 213 213 213 217 223 224 225 224 220 219 218 219 219 218 217 217 217 218 217 215 213 212 208 204 205 205 202 200 198 195 193 192 184
280 283 282 281 279 286 287 288 297 262 247 262 263 259 268 278 283 281 280 282 278 271 269 273 281 285 284 283 289 294 301 342 6 338 347 12 16 10 3 358 349 335 325 311 291 269 259 247 234 234 233 220 209 208 207 207 209 210 211 211 211 212 216 216 213 215 215 217 224 225 225 225 223 221 220 221 219 218 218 217 217 218 218 214 211 210 206 202 202 203 202 199 195 192 195 193 187
282 288 288 287 284 281 282 282 285 287 282 279 278 278 283 290 289 284 280 278 273 273 277 282 283 278 277 282 297 329 26 36 348 336 17 35 26 21 19 12 9 6 2 354 338 298 265 252 237 232 229 215 207 207 206 206 208 211 213 213 215 215 216 216 215 217 216 218 225 227 228 227 226 224 222 222 220 219 218 217 217 218 218 214 210 209 205 202 204 203 201 200 194 189 189 189 189
280 284 279 276 277 276 278 278 278 286 285 278 279 282 286 291 290 282 274 271 273 280 285 283 272 267 272 288 30 58 53 22 339 14 39 39 30 29 27 19 17 21 24 22 15 359 323 279 250 237 222 207 204 205 205 205 207 211 215 218 221 220 218 217 218 221 220 222 227 228 230 229 228 226 223 222 221 219 218 217 217 218 217 213 211 210 207 205 206 203 200 200 198 191 185 184 187
277 279 277 275 276 278 278 279 281 291 288 278 282 284 287 289 284 275 270 273 276 279 277 267 263 266 280 64 66 48 35 41 35 40 43 40 37 33 28 23 21 23 25 26 24 15 3 340 294 268 236 209 208 209 208 210 213 215 218 222 226 227 224 221 222 225 224 226 228 229 231 231 229 227 225 223 221 219 217 217 218 218 216 214 212 211 209 207 207 204 199 199 199 196 192 189 186
273 272 274 275 278 282 283 282 282 301 293 284 293 294 288 282 275 273 274 273 268 261 258 256 265 293 60 66 39 35 53 57 48 46 47 45 42 35 30 25 21 21 25 27 25 21 17 8 351 323 286 236 222 217 214 219 221 222 226 230 233 233 232 229 229 228 227 227 228 230 232 232 230 228 227 224 222 221 218 217 218 219 218 214 212 210 209 209 208 205 202 200 197 195 197 196 193
259 259 269 275 280 284 289 296 305 292 272 283 296 293 281 270 264 267 270 257 253 251 254 256 275 45 72 62 50 60 65 59 50 46 44 43 41 35 30 23 17 16 21 27 26 23 19 11 3 350 328 296 263 236 224 227 230 228 228 232 236 236 236 237 232 229 230 227 225 230 233 233 231 230 229 228 225 223 220 218 219 220 219 216 214 211 210 210 210 207 205 202 196 190 191 199 201
258 256 259 267 277 284 293 305 311 301 283 281 298 292 279 266 249 237 201 196 234 255 260 256 89 90 92 80 71 69 66 59 51 42 39 40 38 34 30 23 17 14 15 22 28 25 19 13 8 1 350 335 315 284 248 237 235 229 223 227 235 237 238 238 234 230 229 226 228 233 235 235 234 232 231 231 229 226 222 221 221 221 220 218 216 214 213 212 211 209 207 203 199 195 192 195 202
271 260 258 269 283 292 298 306 313 307 290 61 353 315 297 86 250 246 238 229 248 261 270 84 91 90 91 86 76 73 69 58 49 43 43 42 39 36 31 24 19 14 10 15 27 29 22 17 13 9 6 359 348 330 295 264 247 239 230 232 238 239 240 237 235 235 230 227 231 234 236 239 237 234 233 232 231 229 225 223 223 224 223 221 219 216 215 214 213 212 209 205 204 204 198 192 198
273 279 300 293 294 296 297 305 310 298 288 312 9 304 283 282 273 263 260 260 259 265 54 80 86 83 83 78 69 71 71 63 50 43 42 43 42 39 33 27 22 15 8 11 26 30 23 18 16 14 14 11 5 352 329 299 277 265 253 250 251 251 254 252 249 247 241 234 232 228 231 239 240 237 234 233 233 230 228 226 225 225 225 223 221 217 217 217 216 214 211 209 208 207 202 196 198
266 23 7 321 303 299 301 304 289 280 294 288 234 228 266 284 284 261 224 242 254 231 83 86 89 87 87 82 76 68 64 63 54 44 39 39 42 40 36 31 24 17 11 15 27 29 23 18 17 17 16 16 12 1 350 328 305 295 281 270 265 262 264 268 269 266 253 239 233 224 222 230 237 238 234 233 235 233 229 227 226 226 226 225 224 220 219 220 219 216 213 212 210 208 206 204 203
278 62 8 327 313 299 300 293 283 288 299 288 214 193 255 282 293 186 206 241 246 97 91 94 89 82 82 84 83 76 65 60 54 48 39 38 43 42 39 34 26 20 18 23 30 30 26 20 18 19 18 16 13 7 2 347 324 311 299 288 282 278 275 274 272 271 262 245 235 229 223 225 233 237 234 232 235 236 232 229 227 227 226 225 225 224 223 223 222 219 216 213 211 211 210 209 208
55 74 301 281 254 264 271 266 281 290 278 277 220 186 242 296 289 182 211 258 132 112 103 99 97 88 80 73 71 71 66 58 53 47 39 38 42 42 42 39 31 26 25 30 33 31 28 22 19 20 18 15 12 10 8 358 344 326 312 302 296 292 289 286 280 273 268 258 246 232 227 229 228 232 234 230 233 238 236 232 230 228 228 226 225 226 226 226 226 223 220 218 215 213 213 213 213
46 287 281 276 251 242 243 246 267 274 263 278 225 189 217 296 303 160 172 61 97 117 109 102 97 90 82 67 58 59 58 56 51 44 39 36 37 40 43 40 33 30 30 32 32 30 27 23 20 20 19 17 15 13 10 4 356 342 329 318 308 302 297 293 288 281 277 272 264 250 238 236 228 228 233 230 232 238 238 234 232 231 230 228 227 227 226 225 226 226 224 222 219 217 216 215 215
237 260 284 295 270 232 228 219 199 245 265 308 173 186 220 250 254 74 114 79 60 67 97 104 94 82 76 67 62 59 56 57 49 42 39 32 30 33 36 35 30 28 28 29 29 27 26 23 21 21 19 17 17 16 14 9 3 354 343 333 321 314 308 300 294 290 286 282 277 270 259 249 236 229 227 227 233 239 239 235 233 233 232 230 228 229 228 226 226 227 226 224 221 220 219 217 217
214 238 251 280 287 264 254 238 224 253 258 92 120 186 239 247 257 265 253 69 64 62 80 100 101 89 79 72 67 62 59 57 49 43 37 31 27 28 31 31 27 25 25 25 25 24 24 23 23 23 21 20 21 23 20 14 8 1 353 344 335 327 318 310 302 297 294 290 286 281 273 263 251 239 227 229 239 244 241 237 235 235 233 232 231 231 230 228 227 226 226 226 224 223 222 221 220
192 210 219 243 278 278 273 273 268 271 258 137 148 286 263 264 280 275 260 72 77 78 74 84 92 87 81 76 69 65 61 54 48 43 36 32 28 27 30 28 25 25 24 22 22 21 20 20 21 23 23 24 29 31 27 20 14 6 0 353 344 336 328 320 313 306 302 297 292 287 283 275 268 261 245 240 246 248 246 243 241 239 237 235 234 234 232 231 229 228 228 227 226 226 225 224 224
198 209 225 243 261 264 270 278 272 278 291 266 208 250 270 284 43 82 87 79 79 81 80 80 79 79 79 74 67 62 59 53 47 44 39 35 29 28 29 27 25 24 22 22 21 18 18 18 18 21 22 26 34 37 34 29 23 15 8 1 353 345 335 326 318 314 310 305 299 293 288 283 279 278 271 260 253 251 251 249 246 243 241 239 237 236 235 233 231 229 229 229 228 228 227 227 227
209 176 236 247 258 257 265 275 277 290 298 279 236 242 268 279 272 102 94 85 79 78 81 80 76 77 75 69 64 56 55 53 46 44 41 36 32 29 27 24 21 20 20 21 19 17 18 16 16 20 22 26 33 37 36 33 32 28 21 13 3 353 342 333 326 321 316 310 304 298 293 289 286 284 283 277 262 255 258 256 251 248 246 243 240 239 238 236 233 232 232 232 231 230 229 229 230
115 148 238 253 315 281 273 272 276 278 275 269 258 261 268 273 269 111 96 87 83 78 75 77 78 78 74 66 62 55 54 52 47 46 42 35 32 27 24 20 16 13 13 14 16 16 15 14 16 22 25 25 26 28 29 31 34 34 31 26 19 9 355 341 331 325 321 316 310 303 298 293 291 288 285 281 268 261 266 263 256 253 249 245 244 242 240 239 237 235 234 232 232 232 231 231 231
210 222 289 12 323 259 256 262 269 263 263 262 253 263 273 275 268 117 107 96 88 82 76 79 77 74 71 66 63 59 57 56 52 50 44 39 33 24 19 14 10 9 6 5 7 8 12 16 20 24 26 23 19 17 18 21 26 28 28 27 27 25 18 4 350 336 328 323 318 313 307 301 297 293 290 284 271 267 272 269 261 256 252 248 246 244 243 243 240 237 237 236 235 234 233 233 233
258 287 356 337 263 258 243 244 260 259 263 263 250 258 264 262 265 156 122 112 99 90 78 74 67 65 67 65 62 55 51 49 42 40 35 30 29 18 11 7 4 3 1 0 3 8 15 19 22 25 25 22 19 18 17 16 16 17 18 20 24 27 25 19 13 5 355 344 332 325 318 311 305 299 293 287 277 273 275 272 266 261 256 252 248 246 245 244 242 240 240 239 237 235 235 237 235
279 304 270 235 258 278 265 257 270 266 264 265 258 257 253 257 297 78 109 109 107 103 92 83 74 72 69 62 57 40 35 32 20 21 17 12 11 4 359 355 350 349 349 354 4 13 19 20 21 22 21 20 21 21 21 19 16 14 16 20 23 26 25 22 18 15 12 5 353 341 330 321 314 305 298 291 283 278 277 274 270 265 260 256 252 249 247 245 244 243 242 240 239 237 236 238 238
227 233 233 229 226 274 281 265 257 259 264 263 261 257 248 264 41 86 105 103 109 115 115 121 114 102 93 74 60 30 18 8 353 355 353 350 346 339 335 330 329 334 341 350 2 13 18 20 21 20 19 20 20 20 19 16 16 17 18 21 23 24 24 23 20 16 13 10 5 357 347 335 325 314 305 298 289 282 280 277 273 268 263 260 256 252 249 246 244 244 243 241 241 239 238 239 239
284 263 255 260 262 266 271 260 240 240 257 262 261 261 254 70 55 90 103 100 112 123 129 135 137 138 131 109 86 327 297 295 296 294 294 294 299 308 310 313 326 337 344 354 2 9 13 15 18 21 24 25 24 22 19 14 13 14 16 20 22 22 21 20 18 17 15 13 9 4 357 348 339 327 317 308 298 290 285 281 276 271 266 262 259 256 252 248 245 244 244 242 241 239 239 240 239